Location: Bégole
(43.1574°N, 0.3291°E)
Time: 03:09:11
(UTC+00:00)

Cosmos 1536 Rocket - Pass Details

Date: 28 January 2023
Orbit: 604 x 630 km, 82.5° (Epoch: 27 March)

Event Time Altitude Azimuth Distance (km) Brightness Sun altitude
Rises 18:12:30 0° 177° (S) 2,845 7.1 -12.4°
Reaches altitude 10° 18:14:43 10° 174° (S) 1,946 6.2 -12.8°
Maximum altitude 18:18:57 60° 95° (E) 697 3.5 -13.6°
Drops below altitude 10° 18:23:13 10° 16° (NNE) 1,963 5.9 -14.3°
Sets 18:25:28 0° 12° (NNE) 2,873 6.7 -14.7°
